STARLINK-3680, 51969

Orbit data source: Space-Track

STARLINK-3680, 51969 is a payload satellite owned by SpaceX/Seattle (US) in LEO that was launched on Wed, 09 Mar 2022 UTC via an FALCON 9 launch vehicle from the Air Force Eastern Test Range (AFETR). Payload-class satellites include a variety of spacecraft equipped with specific instruments for various scientific and technological missions. These include communications satellites like Starlink; space stations such as the ISS; scientific satellites like the Hubble; Earth observation satellites from companies like Planet Labs, Umbra, and HawkEye 360; GPS; miniature CubeSats for education and research; and military/defense satellites.

Loading next visibility...
Identifier
51969, 2022-025P
Orbit
LEO
Country
Flag of USUS
Related business
Manufacturer
SpaceX/Seattle
Mission
Operational Commercial Communications
Bus & Motor
STARLINK, Unknown motor
Mass
297 kg wet, ~275 kg dry
Launch date (UTC)
2022-03-09 (4 years ago)
Launch vehicle
FALCON 9
Launch site
Air Force Eastern Test Range (AFETR)
Object type
Payload
Rocket body
Debris
Shape & HBR
Box + 1 Pan, 10.1 m
Radar Cross Section
13.562 m², Large (>1 m²)

Expand to show TLE details & history
Last TLE update: 11 hours ago

TLE from 11 hours ago
0 STARLINK-3680
1 51969U 22025P   25346.91958331 -.00000697  00000-0 -27909-4 0  9995
2 51969  53.0562  56.7555 0001353  87.5809 272.5335 15.06402738207883
Epoch: 2025-12-12T22:04Z
TLE epoch observation values (Epoch: 2025-12-12T22:04:11.997Z)
Latitude
-0.00004°
Longitude
3.85119°
Altitude
548.041 km
Speed
7.589 km/s
True Right ascension
03h 47m 01s
True Declination
0° 00' 00"
Sunlit
Object was in full shadow at epoch
Visualization orbit readout
Latitude
Unknown
Longitude
Unknown
Altitude
Unknown
Speed
Unknown
Apparent Right ascension
Unknown
Apparent Declination
Unknown
Sunlit
N/A
Visualization observer readout
Local Sidereal Time
07:26:31
Azimuth
Unknown
Elevation
Unknown
Doppler factor
Unknown
Orbital elements
Apogee altitude
548.411 km
Perigee altitude
546.537 km
Semi-major axis
6,925.611 km
Eccentricity
0.00014
Inclination
53.0562°
RAAN
56.7555°
Arg. of periapsis
87.5809°
True anomaly
272.51801°
Mean anomaly
272.5335°
Eccentric anomaly
272.52576°
Mean motion
3.76579 °/min
Orbital period
95.6 mins
BSTAR
-0.000027909
Loading maneuver chart data...
Computing Atmospheric mass density...
Loading historical data...
Loading historical data...
Loading historical data...
Loading historical data...
Loading historical data...
Loading historical data...
Loading historical data...

Documentation

Showing up to 5 results
|